GW5098 Weather Reports


time (UTC)temp
C
wind
direction
speed
KPH
gust
KPH
rain 1hr
cm
rain 24hr
cm
rain mn
cm
humidity
%
barometer
mb
20260507084329 13 313 1.6 4.8 0.00 0.00 0.00 68 1017.0
20260507083829 13 81 1.6 6.4 0.00 0.00 0.00 67 1017.0
20260507083330 13 258 4.8 6.4 0.00 0.00 0.00 67 1017.1
20260507082823 13 293 3.2 6.4 0.00 0.00 0.00 68 1017.1
20260507082323 13 263 0.0 3.2 0.00 0.00 0.00 68 1017.1
20260507081822 13 273 0.0 9.7 0.00 0.00 0.00 68 1017.0
20260507081323 12 330 3.2 9.7 0.00 0.00 0.00 70 1017.1
20260507080823 12 257 1.6 4.8 0.00 0.00 0.00 70 1017.1
20260507080322 12 268 3.2 4.8 0.00 0.00 0.00 71 1016.9
20260507075823 12 324 1.6 9.7 0.00 0.00 0.00 72 1017.0
20260507075324 12 318 6.4 9.7 0.00 0.00 0.00 73 1016.9
20260507074822 12 257 6.4 6.4 0.00 0.00 0.00 73 1016.8
20260507074322 11 178 1.6 11.3 0.00 0.00 0.00 74 1016.7
20260507073822 11 281 8.0 11.3 0.00 0.00 0.00 75 1016.8
20260507073550 11 276 1.6 6.4 0.00 0.00 0.00 76 1016.7
20260507072822 11 288 3.2 6.4 0.00 0.00 0.00 75 1016.9
20260507072322 12 296 1.6 6.4 0.00 0.00 0.00 73 1016.7
20260507071822 11 74 4.8 6.4 0.00 0.00 0.00 74 1016.6
20260507071551 11 294 0.0 4.8 0.00 0.00 0.00 74 1016.8
20260507070822 11 259 1.6 6.4 0.00 0.00 0.00 77 1016.8
20260507070323 11 221 1.6 6.4 0.00 0.00 0.00 76 1016.7
20260507065823 11 15 1.6 4.8 0.00 0.00 0.00 76 1016.6
20260507065305 10 304 1.6 9.7 0.00 0.00 0.00 77 1016.8
20260507064801 10 7 3.2 9.7 0.00 0.00 0.00 78 1016.8
20260507064304 11 301 0.0 4.8 0.00 0.00 0.00 77 1016.8
20260507063801 10 319 3.2 9.7 0.00 0.00 0.00 78 1016.6
20260507063307 10 270 0.0 9.7 0.00 0.00 0.00 79 1016.6
20260507062803 10 292 1.6 4.8 0.00 0.00 0.00 80 1016.4
20260507062305 10 306 0.0 4.8 0.00 0.00 0.00 80 1016.4
20260507061802 9 286 0.0 4.8 0.00 0.00 0.00 81 1016.6
20260507061304 9 287 3.2 4.8 0.00 0.00 0.00 82 1016.5
20260507060751 9 256 1.6 4.8 0.00 0.00 0.00 82 1016.5
20260507060251 9 284 0.0 4.8 0.00 0.00 0.00 82 1016.4
20260507060011 9 264 0.0 4.8 0.00 0.00 0.00 83 1016.3
20260507055251 8 254 1.6 4.8 0.00 0.00 0.00 83 1016.4
20260507054751 8 269 1.6 4.8 0.00 0.00 0.00 84 1016.1
20260507054251 8 330 0.0 3.2 0.00 0.00 0.00 84 1016.3
20260507053737 8 320 0.0 3.2 0.00 0.00 0.00 85 1016.2
20260507053232 8 264 1.6 4.8 0.00 0.00 0.00 85 1016.2
20260507052730 8 281 0.0 4.8 0.00 0.03 0.00 86 1016.2
20260507052453 8 274 0.0 3.2 0.00 0.03 0.00 86 1016.2
20260507051730 8 280 1.6 3.2 0.00 0.03 0.00 86 1016.2
20260507051230 8 288 0.0 1.6 0.00 0.03 0.00 86 1015.9
20260507050729 8 284 0.0 1.6 0.00 0.03 0.00 86 1015.9
20260507050229 8 279 0.0 1.6 0.00 0.03 0.00 87 1015.9
20260507045729 7 279 0.0 1.6 0.00 0.03 0.00 87 1016.1
20260507045229 7 276 0.0 4.8 0.00 0.03 0.00 87 1015.7
20260507044729 7 297 0.0 4.8 0.00 0.03 0.00 87 1015.7
20260507044228 7 286 0.0 4.8 0.00 0.03 0.00 87 1015.7
20260507043731 7 285 0.0 4.8 0.00 0.03 0.00 87 1015.7
20260507043229 7 298 0.0 3.2 0.00 0.03 0.00 87 1015.8
20260507042730 7 305 0.0 3.2 0.00 0.03 0.00 87 1015.5
20260507042230 7 312 1.6 3.2 0.00 0.03 0.00 87 1015.5
20260507041730 7 272 0.0 3.2 0.00 0.03 0.00 87 1015.4
20260507041230 7 298 0.0 3.2 0.00 0.03 0.00 88 1015.3
20260507040959 7 292 1.6 3.2 0.00 0.03 0.00 88 1015.4
20260507040218 7 290 0.0 4.8 0.00 0.03 0.00 88 1015.4
20260507035717 7 293 1.6 4.8 0.00 0.03 0.00 88 1015.2
20260507035442 7 277 1.6 4.8 0.00 0.03 0.00 89 1015.1
20260507034717 7 302 0.0 1.6 0.00 0.03 0.00 89 1015.4
20260507034218 7 305 0.0 1.6 0.00 0.03 0.00 89 1015.3
20260507033716 7 305 1.6 1.6 0.00 0.03 0.00 89 1015.2
20260507033216 7 304 0.0 1.6 0.00 0.03 0.00 89 1015.2
20260507033200 7 304 0.0 1.6 0.00 0.03 0.00 89 1015.3
20260507032216 7 304 0.0 1.6 0.00 0.03 0.00 89 1015.3
20260507031717 7 304 0.0 1.6 0.00 0.03 0.00 89 1015.1
20260507031217 8 304 0.0 1.6 0.00 0.03 0.00 89 1015.1
20260507030717 8 304 0.0 1.6 0.00 0.03 0.00 89 1015.1
20260507030217 8 304 0.0 0.0 0.00 0.03 0.00 88 1015.2
20260507025717 8 304 0.0 1.6 0.00 0.03 0.00 88 1015.1
20260507025217 8 304 0.0 1.6 0.00 0.03 0.00 88 1015.0
20260507024722 8 305 0.0 1.6 0.00 0.03 0.00 88 1014.8
20260507024442 8 303 0.0 1.6 0.00 0.03 0.00 88 1015.1
20260507023702 8 304 0.0 1.6 0.00 0.03 0.00 88 1014.9
20260507023202 8 304 0.0 0.0 0.00 0.03 0.00 88 1015.0
20260507022702 8 304 0.0 0.0 0.00 0.03 0.00 87 1015.0
20260507022202 8 304 0.0 0.0 0.00 0.03 0.00 87 1014.8
20260507021702 8 304 0.0 0.0 0.00 0.03 0.00 87 1014.8
20260507021200 8 304 0.0 1.6 0.00 0.03 0.00 87 1014.7
20260507020702 8 305 1.6 1.6 0.00 0.03 0.00 87 1014.7
20260507020201 8 305 0.0 1.6 0.00 0.03 0.00 87 1014.7
20260507015927 8 305 0.0 1.6 0.00 0.03 0.00 86 1014.8
20260507015200 8 303 0.0 1.6 0.00 0.03 0.00 86 1014.7
20260507014700 8 303 0.0 1.6 0.00 0.03 0.00 86 1014.5
20260507014201 8 303 0.0 0.0 0.00 0.03 0.00 86 1014.7
20260507013702 8 303 0.0 0.0 0.00 0.03 0.00 86 1014.7
20260507013202 8 303 0.0 1.6 0.00 0.03 0.00 85 1014.4
20260507012702 8 305 0.0 1.6 0.00 0.03 0.00 85 1014.4
20260507012428 8 302 0.0 1.6 0.00 0.03 0.00 85 1014.6
20260507011702 8 305 1.6 1.6 0.00 0.03 0.00 85 1014.5
20260507011201 8 293 0.0 1.6 0.00 0.03 0.00 84 1014.6
20260507010701 8 303 0.0 4.8 0.00 0.03 0.00 84 1014.4
20260507010201 8 310 0.0 4.8 0.00 0.03 0.00 84 1014.5
20260507005701 8 293 0.0 3.2 0.00 0.03 0.00 84 1014.4
20260507005200 8 278 0.0 4.8 0.00 0.03 0.00 85 1014.3
20260507004928 8 323 0.0 4.8 0.00 0.03 0.00 85 1014.4
20260507004201 8 298 0.0 3.2 0.00 0.03 0.00 86 1014.1
20260507003701 8 295 0.0 3.2 0.00 0.03 0.00 87 1014.3
20260507003203 8 293 0.0 3.2 0.00 0.03 0.00 87 1014.3
20260507002701 8 312 0.0 1.6 0.00 0.03 0.00 87 1014.1
20260507002201 8 309 0.0 1.6 0.00 0.03 0.00 88 1014.4
20260507001929 8 308 0.0 0.0 0.00 0.03 0.00 88 1014.2
20260507001202 9 308 0.0 0.0 0.00 0.03 0.00 88 1014.3
20260507001149 9 308 0.0 1.6 0.00 0.03 0.00 87 1014.3
20260507000431 9 308 0.0 1.6 0.00 0.03 0.00 86 1014.2
20260506235652 9 308 0.0 1.6 0.00 0.03 0.00 85 1014.2
20260506235148 9 308 0.0 1.6 0.00 0.03 0.00 85 1014.2
20260506235128 9 307 0.0 1.6 0.00 0.03 0.00 84 1014.2
20260506234141 9 307 0.0 0.0 0.00 0.03 0.00 85 1014.2
20260506233909 9 307 0.0 0.0 0.00 0.03 0.00 84 1014.0
20260506233142 9 307 0.0 1.6 0.00 0.03 0.00 84 1014.2
20260506232641 9 307 0.0 1.6 0.00 0.03 0.00 84 1014.1
20260506232408 9 307 0.0 1.6 0.00 0.03 0.00 84 1014.1
20260506231907 9 307 0.0 1.6 0.00 0.03 0.00 84 1014.1
20260506231143 9 307 0.0 1.6 0.00 0.03 0.00 83 1014.0
20260506230643 9 307 0.0 1.6 0.00 0.03 0.00 83 1014.2
20260506230142 9 307 0.0 1.6 0.00 0.03 0.00 83 1013.8
20260506225630 9 307 0.0 1.6 0.00 0.03 0.00 83 1014.0
20260506225130 9 307 0.0 1.6 0.00 0.03 0.00 84 1014.0
20260506224631 9 307 0.0 0.0 0.00 0.03 0.00 85 1013.8
20260506224131 9 307 0.0 0.0 0.00 0.03 0.00 85 1014.1
20260506223630 9 307 0.0 0.0 0.00 0.03 0.00 84 1013.8
20260506223131 9 307 0.0 0.0 0.00 0.03 0.00 84 1013.8
20260506223118 9 307 0.0 0.0 0.00 0.03 0.00 84 1013.8
20260506222131 9 307 0.0 0.0 0.00 0.03 0.00 84 1013.7
20260506222126 9 307 0.0 0.0 0.00 0.03 0.00 84 1013.8
20260506221129 9 307 0.0 0.0 0.00 0.03 0.00 84 1013.7
20260506220628 9 307 0.0 1.6 0.00 0.03 0.00 84 1013.9
20260506220222 9 307 0.0 1.6 0.00 0.03 0.00 84 1013.7
20260506215628 9 307 0.0 1.6 0.00 0.03 0.03 83 1013.6
20260506215129 9 307 0.0 1.6 0.00 0.03 0.03 83 1013.8
20260506214629 9 307 0.0 1.6 0.00 0.03 0.03 82 1013.7
20260506214129 9 307 0.0 1.6 0.00 0.03 0.03 82 1013.5
20260506213628 9 307 0.0 1.6 0.00 0.03 0.03 81 1013.5
20260506213128 9 307 0.0 1.6 0.00 0.03 0.03 81 1013.6
20260506212631 9 307 0.0 1.6 0.00 0.03 0.03 82 1013.6
20260506212131 9 307 0.0 1.6 0.00 0.03 0.03 82 1013.5
20260506211619 10 307 0.0 1.6 0.00 0.03 0.03 82 1013.6
20260506211116 9 307 0.0 1.6 0.00 0.03 0.03 81 1013.4
20260506210616 10 307 0.0 1.6 0.00 0.03 0.03 81 1013.4
20260506210105 10 307 0.0 1.6 0.00 0.03 0.03 81 1013.4
20260506205605 10 307 0.0 0.0 0.00 0.03 0.03 80 1013.5
20260506205105 10 307 0.0 1.6 0.00 0.03 0.03 80 1013.6
20260506204604 10 307 0.0 1.6 0.00 0.03 0.03 79 1013.7
20260506204104 10 307 0.0 0.0 0.00 0.03 0.03 79 1013.4
20260506203604 10 307 0.0 1.6 0.00 0.03 0.03 79 1013.5
20260506203101 10 307 0.0 1.6 0.00 0.03 0.03 78 1013.4
20260506202601 10 306 0.0 1.6 0.00 0.03 0.03 78 1013.5
20260506202103 10 305 0.0 1.6 0.00 0.03 0.03 78 1013.4
20260506201831 10 306 0.0 1.6 0.00 0.03 0.03 78 1013.6
20260506201101 10 304 0.0 1.6 0.00 0.03 0.03 78 1013.4
20260506200601 10 302 0.0 1.6 0.00 0.03 0.03 78 1013.2
20260506195602 10 305 0.0 1.6 0.00 0.03 0.03 78 1013.2
20260506195104 10 290 0.0 1.6 0.00 0.03 0.03 78 1013.0
20260506194602 10 298 0.0 1.6 0.00 0.03 0.03 77 1013.0
20260506194106 10 305 0.0 3.2 0.00 0.03 0.03 77 1013.0
20260506193602 10 305 0.0 3.2 0.00 0.03 0.03 77 1012.8
20260506193104 10 297 0.0 3.2 0.00 0.03 0.03 76 1013.1
20260506192604 10 283 0.0 3.2 0.00 0.03 0.03 76 1012.9
20260506192109 10 302 0.0 3.2 0.00 0.03 0.03 76 1012.8
20260506191603 10 311 0.0 4.8 0.00 0.03 0.03 76 1012.7
20260506191103 10 81 1.6 4.8 0.00 0.03 0.03 76 1012.6
20260506190603 10 289 0.0 3.2 0.00 0.03 0.03 77 1012.7
20260506190101 10 269 0.0 3.2 0.00 0.03 0.03 77 1012.5
20260506185601 10 313 0.0 3.2 0.00 0.03 0.03 77 1012.6
20260506185105 10 259 1.6 3.2 0.00 0.03 0.03 78 1012.7
20260506184601 10 288 1.6 3.2 0.00 0.03 0.03 78 1012.4
20260506184101 10 284 0.0 1.6 0.00 0.03 0.03 79 1012.4
20260506183827 10 309 1.6 3.2 0.00 0.03 0.03 79 1012.3
20260506183101 10 343 1.6 3.2 0.00 0.03 0.03 79 1012.4
20260506182600 10 309 0.0 1.6 0.00 0.03 0.03 79 1012.4
20260506182101 10 293 0.0 3.2 0.00 0.03 0.03 79 1012.3
20260506181600 10 317 0.0 3.2 0.00 0.03 0.03 79 1012.3
20260506181323 10 304 0.0 3.2 0.00 0.03 0.03 79 1012.3
20260506180601 10 298 0.0 3.2 0.00 0.03 0.03 79 1012.0
20260506175601 10 299 0.0 3.2 0.00 0.03 0.03 78 1012.0
20260506175328 10 299 1.6 4.8 0.00 0.03 0.03 78 1011.8
20260506174600 10 276 0.0 6.4 0.00 0.03 0.03 78 1011.8
20260506174101 10 305 0.0 6.4 0.00 0.03 0.03 78 1011.9
20260506173606 10 314 1.6 11.3 0.00 0.03 0.03 78 1011.7
20260506173602 10 327 3.2 9.7 0.00 0.03 0.03 78 1011.8
20260506172601 10 12 4.8 11.3 0.00 0.03 0.03 79 1011.7
20260506172101 10 346 3.2 6.4 0.00 0.03 0.03 79 1011.6
20260506171600 10 300 0.0 6.4 0.00 0.03 0.03 80 1011.7
20260506171101 10 5 1.6 6.4 0.00 0.03 0.03 80 1011.5
20260506170832 10 343 0.0 11.3 0.00 0.03 0.03 80 1011.5
20260506170108 10 128 1.6 11.3 0.00 0.03 0.03 80 1011.3
20260506165604 10 312 1.6 4.8 0.00 0.03 0.03 80 1011.5
20260506165102 10 57 3.2 9.7 0.00 0.03 0.03 80 1011.4
20260506164600 11 10 1.6 9.7 0.00 0.03 0.03 79 1011.3
20260506164103 11 67 3.2 9.7 0.00 0.03 0.03 79 1011.5
20260506163602 10 326 1.6 11.3 0.00 0.03 0.03 80 1011.3
20260506163101 10 335 3.2 11.3 0.00 0.03 0.03 79 1011.2
20260506162600 10 17 3.2 12.9 0.00 0.03 0.03 79 1011.4
20260506162102 10 43 6.4 12.9 0.00 0.03 0.03 79 1011.3
20260506161602 10 256 0.0 11.3 0.00 0.03 0.03 80 1011.3
20260506161333 10 289 1.6 11.3 0.00 0.03 0.03 80 1011.3
20260506160831 10 348 3.2 11.3 0.00 0.03 0.03 79 1011.3
20260506155601 10 310 6.4 12.9 0.00 0.03 0.03 78 1011.3
20260506155100 11 277 3.2 12.9 0.00 0.03 0.03 78 1011.2
20260506154603 11 272 6.4 12.9 0.00 0.03 0.03 77 1011.3
20260506154102 11 264 0.0 12.9 0.00 0.03 0.03 77 1011.3
20260506153602 11 275 0.0 12.9 0.00 0.03 0.03 76 1011.1
20260506153102 11 36 4.8 6.4 0.00 0.03 0.03 74 1011.1
20260506152601 11 266 0.0 6.4 0.00 0.03 0.03 74 1011.1
20260506152102 11 286 1.6 4.8 0.00 0.03 0.03 73 1011.1
20260506151603 11 283 0.0 9.7 0.00 0.03 0.03 72 1011.1
20260506151102 11 45 3.2 12.9 0.00 0.03 0.03 72 1010.9
20260506150602 11 25 3.2 12.9 0.00 0.03 0.03 72 1011.2
20260506150101 11 241 0.0 9.7 0.00 0.03 0.03 72 1011.0
20260506145601 11 11 1.6 11.3 0.00 0.03 0.03 71 1011.1
20260506145100 11 39 8.0 11.3 0.00 0.03 0.03 71 1011.0
20260506144602 11 310 3.2 9.7 0.00 0.03 0.03 70 1011.1
20260506144101 11 300 3.2 6.4 0.00 0.03 0.03 70 1011.0
20260506143600 11 313 0.0 6.4 0.00 0.03 0.03 70 1010.9
20260506143337 11 267 3.2 9.7 0.00 0.03 0.03 70 1011.0
20260506142602 11 258 1.6 11.3 0.00 0.03 0.03 70 1010.9
20260506142103 11 253 4.8 12.9 0.00 0.03 0.03 68 1010.9
20260506141602 11 20 8.0 12.9 0.00 0.03 0.03 67 1010.9
20260506141102 12 278 0.0 11.3 0.00 0.03 0.03 68 1010.9
20260506140829 12 263 3.2 11.3 0.00 0.03 0.03 66 1010.8
20260506135600 12 5 4.8 14.5 0.00 0.03 0.03 66 1011.0
20260506135108 12 296 1.6 14.5 0.00 0.03 0.03 65 1010.9
20260506134606 12 278 4.8 9.7 0.00 0.03 0.03 64 1010.9
20260506134106 12 266 3.2 9.7 0.00 0.03 0.03 66 1010.7
20260506134101 12 322 3.2 9.7 0.00 0.03 0.03 65 1010.7
20260506133100 12 143 6.4 12.9 0.00 0.03 0.03 65 1010.8
20260506132603 12 279 6.4 12.9 0.00 0.03 0.03 65 1010.9
20260506132103 12 266 1.6 11.3 0.00 0.03 0.03 66 1010.8
20260506131603 12 352 4.8 11.3 0.00 0.03 0.03 66 1010.8
20260506131102 12 52 4.8 12.9 0.00 0.03 0.03 66 1010.7
20260506130602 12 21 3.2 12.9 0.00 0.03 0.03 67 1010.6
20260506125603 12 70 3.2 14.5 0.00 0.03 0.03 67 1010.7
20260506125054 12 286 3.2 12.9 0.00 0.03 0.03 67 1010.6
20260506124557 11 322 3.2 12.9 0.00 0.03 0.03 68 1010.6
20260506124053 11 274 0.0 14.5 0.00 0.03 0.03 69 1010.6
20260506123555 11 16 1.6 14.5 0.00 0.03 0.03 68 1010.5
20260506123323 11 355 1.6 9.7 0.00 0.03 0.03 69 1010.7
20260506122552 11 185 1.6 12.9 0.00 0.03 0.03 69 1010.5
20260506122053 11 10 6.4 12.9 0.00 0.03 0.03 69 1010.7
20260506121553 11 125 1.6 11.3 0.00 0.03 0.03 70 1010.5
20260506121325 11 297 3.2 12.9 0.00 0.03 0.03 70 1010.7
20260506120553 11 357 4.8 12.9 0.00 0.03 0.03 70 1010.6
20260506120324 11 76 1.6 11.3 0.00 0.03 0.03 70 1010.5
20260506115553 11 323 0.0 11.3 0.00 0.03 0.03 70 1010.5
20260506115053 11 258 1.6 14.5 0.00 0.03 0.03 69 1010.4
20260506114554 11 9 6.4 14.5 0.00 0.03 0.03 68 1010.3
20260506114053 12 335 4.8 12.9 0.00 0.03 0.03 68 1010.3
20260506113823 12 286 3.2 12.9 0.00 0.03 0.03 69 1010.2
20260506113054 12 308 3.2 9.7 0.00 0.03 0.03 69 1010.2
20260506112553 12 356 1.6 9.7 0.00 0.03 0.03 69 1010.4
20260506112053 12 249 1.6 9.7 0.00 0.03 0.03 69 1010.3
20260506111552 12 19 4.8 9.7 0.00 0.03 0.03 68 1010.3
20260506111030 12 267 3.2 14.5 0.00 0.03 0.03 70 1010.2
20260506110531 12 236 3.2 14.5 0.00 0.03 0.03 69 1010.3
20260506110030 12 275 0.0 9.7 0.00 0.03 0.03 72 1010.2
20260506105535 12 285 1.6 12.9 0.00 0.03 0.03 73 1010.4
20260506105030 12 251 0.0 12.9 0.00 0.03 0.03 73 1010.3
20260506105019 12 233 3.2 12.9 0.00 0.03 0.03 74 1010.2
20260506104028 12 16 3.2 11.3 0.00 0.03 0.03 74 1010.0
20260506103531 12 275 0.0 11.3 0.00 0.03 0.03 76 1010.2
20260506103510 12 1 0.0 11.3 0.00 0.03 0.03 76 1010.1
20260506102521 11 349 3.2 14.5 0.00 0.03 0.03 76 1010.1
20260506102020 11 335 8.0 14.5 0.00 0.03 0.03 78 1010.1
20260506101521 11 95 3.2 11.3 0.00 0.03 0.03 80 1010.2
20260506101020 11 300 3.2 14.5 0.00 0.03 0.03 81 1010.0
20260506100519 11 270 1.6 14.5 0.00 0.03 0.03 80 1010.0
20260506100020 11 29 3.2 11.3 0.00 0.03 0.03 81 1009.9
20260506095520 11 315 3.2 11.3 0.00 0.03 0.03 80 1009.9
20260506095020 11 244 0.0 11.3 0.00 0.03 0.03 81 1009.9
20260506095013 11 344 6.4 16.1 0.00 0.03 0.03 80 1009.9
20260506094019 11 67 4.8 16.1 0.00 0.03 0.03 79 1009.8
20260506093520 11 2 3.2 12.9 0.00 0.03 0.03 80 1009.8
20260506093507 11 357 8.0 12.9 0.00 0.03 0.03 79 1009.7
20260506092520 11 287 3.2 11.3 0.00 0.05 0.03 81 1009.7
20260506092020 11 284 1.6 11.3 0.00 0.05 0.03 81 1009.7
20260506091519 11 331 3.2 12.9 0.00 0.05 0.03 81 1009.6
20260506091019 11 12 3.2 12.9 0.00 0.05 0.03 81 1009.5
20260506090520 11 278 4.8 9.7 0.00 0.05 0.03 82 1009.5
20260506090020 11 281 3.2 12.9 0.00 0.05 0.03 82 1009.6
20260506085520 11 300 6.4 12.9 0.00 0.05 0.03 83 1009.5
20260506085020 11 303 1.6 6.4 0.00 0.05 0.03 84 1009.6
20260506084502 11 356 3.2 9.7 0.00 0.05 0.03 84 1009.5